Time,TemperatureF,DewpointF,PressureIn,WindDirection,WindDirectionDegrees,WindSpeedMPH,WindSpeedGustMPH,Humidity,HourlyPrecipIn,Conditions,Clouds,dailyrainin,SoftwareType,DateUTC
2013-04-25 00:03:00,42.5,34.0,30.17,West,277,4.0,16.0,73,0.01,,,0.00,weatherlink.com 1.10,2013-04-25 05:03:00,
2013-04-25 00:18:00,41.8,34.0,30.17,West,279,12.0,21.0,73,0.00,,,0.00,weatherlink.com 1.10,2013-04-25 05:18:00,
2013-04-25 00:33:00,41.0,33.0,30.17,West,279,7.0,20.0,73,0.00,,,0.00,weatherlink.com 1.10,2013-04-25 05:33:00,
2013-04-25 00:48:00,40.2,33.0,30.17,WNW,290,4.0,20.0,74,0.01,,,0.01,weatherlink.com 1.10,2013-04-25 05:48:00,
2013-04-25 01:03:00,39.5,32.0,30.17,WNW,284,7.0,13.0,75,0.01,,,0.01,weatherlink.com 1.10,2013-04-25 06:03:00,
2013-04-25 01:18:00,38.9,32.0,30.18,WNW,294,2.0,14.0,76,0.01,,,0.01,weatherlink.com 1.10,2013-04-25 06:18:00,
2013-04-25 01:33:00,38.4,32.0,30.18,WNW,293,5.0,15.0,77,0.01,,,0.01,weatherlink.com 1.10,2013-04-25 06:33:00,
2013-04-25 01:48:00,38.0,32.0,30.19,West,281,5.0,14.0,78,0.00,,,0.01,weatherlink.com 1.10,2013-04-25 06:48:00,
2013-04-25 02:03:00,37.6,32.0,30.19,WNW,288,5.0,12.0,79,0.00,,,0.01,weatherlink.com 1.10,2013-04-25 07:03:00,
2013-04-25 02:18:00,37.2,31.0,30.19,West,276,7.0,12.0,79,0.00,,,0.01,weatherlink.com 1.10,2013-04-25 07:18:00,
2013-04-25 02:33:00,36.9,31.0,30.19,West,273,2.0,12.0,78,0.00,,,0.01,weatherlink.com 1.10,2013-04-25 07:33:00,
2013-04-25 02:48:00,36.6,30.0,30.19,West,275,4.0,10.0,78,0.01,,,0.02,weatherlink.com 1.10,2013-04-25 07:48:00,
2013-04-25 03:03:00,36.3,30.0,30.19,West,274,4.0,9.0,79,0.01,,,0.02,weatherlink.com 1.10,2013-04-25 08:03:00,
2013-04-25 03:18:00,35.8,30.0,30.19,West,271,5.0,10.0,79,0.01,,,0.02,weatherlink.com 1.10,2013-04-25 08:18:00,
2013-04-25 03:33:00,35.4,30.0,30.19,West,271,5.0,8.0,80,0.01,,,0.02,weatherlink.com 1.10,2013-04-25 08:33:00,
2013-04-25 03:48:00,35.1,30.0,30.20,West,271,3.0,9.0,81,0.00,,,0.02,weatherlink.com 1.10,2013-04-25 08:48:00,
2013-04-25 04:03:00,34.7,29.0,30.20,West,271,2.0,7.0,81,0.00,,,0.02,weatherlink.com 1.10,2013-04-25 09:03:00,
2013-04-25 04:18:00,34.3,29.0,30.20,West,271,0.0,5.0,81,0.00,,,0.02,weatherlink.com 1.10,2013-04-25 09:18:00,
2013-04-25 04:33:00,33.7,29.0,30.20,West,271,0.0,6.0,82,0.00,,,0.02,weatherlink.com 1.10,2013-04-25 09:33:00,
2013-04-25 04:48:00,33.2,29.0,30.20,West,271,4.0,7.0,83,0.00,,,0.02,weatherlink.com 1.10,2013-04-25 09:48:00,
2013-04-25 05:03:00,33.0,29.0,30.21,West,271,6.0,7.0,84,0.00,,,0.02,weatherlink.com 1.10,2013-04-25 10:03:00,
2013-04-25 05:18:00,33.0,29.0,30.21,West,269,4.0,8.0,85,0.00,,,0.02,weatherlink.com 1.10,2013-04-25 10:18:00,
2013-04-25 05:34:00,32.9,29.0,30.22,West,268,3.0,7.0,85,0.00,,,0.02,weatherlink.com 1.10,2013-04-25 10:34:00,
2013-04-25 05:49:00,32.5,29.0,30.22,West,267,3.0,8.0,85,0.00,,,0.02,weatherlink.com 1.10,2013-04-25 10:49:00,
2013-04-25 06:04:00,32.2,29.0,30.22,West,267,3.0,6.0,86,0.00,,,0.02,weatherlink.com 1.10,2013-04-25 11:04:00,
2013-04-25 06:19:00,32.1,28.0,30.23,West,267,4.0,7.0,86,0.00,,,0.02,weatherlink.com 1.10,2013-04-25 11:19:00,
2013-04-25 06:34:00,32.0,28.0,30.23,West,267,3.0,8.0,86,0.00,,,0.02,weatherlink.com 1.10,2013-04-25 11:34:00,
2013-04-25 06:49:00,31.9,29.0,30.23,West,265,4.0,8.0,87,0.00,,,0.02,weatherlink.com 1.10,2013-04-25 11:49:00,
2013-04-25 07:04:00,32.4,29.0,30.24,West,263,3.0,8.0,87,0.00,,,0.02,weatherlink.com 1.10,2013-04-25 12:04:00,
2013-04-25 07:19:00,33.3,30.0,30.25,West,261,3.0,9.0,87,0.00,,,0.02,weatherlink.com 1.10,2013-04-25 12:19:00,
2013-04-25 07:34:00,34.6,31.0,30.25,West,259,2.0,11.0,86,0.00,,,0.02,weatherlink.com 1.10,2013-04-25 12:34:00,
2013-04-25 07:49:00,35.9,32.0,30.25,West,275,8.0,13.0,84,0.00,,,0.02,weatherlink.com 1.10,2013-04-25 12:49:00,
2013-04-25 08:04:00,37.7,32.0,30.26,West,265,7.0,14.0,81,0.00,,,0.02,weatherlink.com 1.10,2013-04-25 13:04:00,
2013-04-25 08:19:00,39.0,32.0,30.26,West,281,5.0,11.0,77,0.00,,,0.02,weatherlink.com 1.10,2013-04-25 13:19:00,
2013-04-25 08:34:00,40.2,33.0,30.27,WNW,284,4.0,10.0,74,0.00,,,0.02,weatherlink.com 1.10,2013-04-25 13:34:00,
2013-04-25 08:49:00,41.1,33.0,30.27,WNW,284,4.0,8.0,72,0.00,,,0.02,weatherlink.com 1.10,2013-04-25 13:49:00,
2013-04-25 09:04:00,43.0,34.0,30.27,WNW,285,4.0,9.0,71,0.00,,,0.02,weatherlink.com 1.10,2013-04-25 14:04:00,
2013-04-25 09:19:00,43.9,31.0,30.28,WNW,285,0.0,7.0,62,0.00,,,0.02,weatherlink.com 1.10,2013-04-25 14:19:00,
2013-04-25 09:34:00,45.3,32.0,30.28,West,273,0.0,10.0,59,0.00,,,0.02,weatherlink.com 1.10,2013-04-25 14:34:00,
2013-04-25 09:49:00,46.7,32.0,30.28,West,265,0.0,10.0,57,0.00,,,0.02,weatherlink.com 1.10,2013-04-25 14:49:00,
2013-04-25 10:04:00,46.3,31.0,30.28,West,271,6.0,10.0,55,0.00,,,0.02,weatherlink.com 1.10,2013-04-25 15:04:00,
2013-04-25 10:19:00,48.0,33.0,30.28,West,260,5.0,11.0,57,0.00,,,0.02,weatherlink.com 1.10,2013-04-25 15:19:00,
2013-04-25 10:34:00,49.1,33.0,30.28,West,266,4.0,12.0,55,0.00,,,0.02,weatherlink.com 1.10,2013-04-25 15:34:00,
2013-04-25 10:49:00,49.8,34.0,30.28,West,264,0.0,8.0,56,0.00,,,0.02,weatherlink.com 1.10,2013-04-25 15:49:00,
2013-04-25 11:04:00,50.5,34.0,30.28,WSW,252,6.0,14.0,54,0.00,,,0.02,weatherlink.com 1.10,2013-04-25 16:04:00,
2013-04-25 11:19:00,51.4,35.0,30.28,West,279,7.0,14.0,54,0.00,,,0.02,weatherlink.com 1.10,2013-04-25 16:19:00,
2013-04-25 11:34:00,52.7,37.0,30.27,SW,234,0.0,9.0,55,0.00,,,0.02,weatherlink.com 1.10,2013-04-25 16:34:00,
2013-04-25 11:49:00,52.2,35.0,30.27,West,276,9.0,11.0,53,0.00,,,0.02,weatherlink.com 1.10,2013-04-25 16:49:00,
2013-04-25 12:04:00,54.0,37.0,30.27,WSW,244,0.0,10.0,53,0.00,,,0.02,weatherlink.com 1.10,2013-04-25 17:04:00,
2013-04-25 12:19:00,54.6,36.0,30.27,West,274,12.0,16.0,49,0.00,,,0.02,weatherlink.com 1.10,2013-04-25 17:19:00,
2013-04-25 12:34:00,54.8,33.0,30.27,West,271,0.0,16.0,44,0.00,,,0.02,weatherlink.com 1.10,2013-04-25 17:34:00,
2013-04-25 12:49:00,56.0,36.0,30.27,WSW,246,8.0,16.0,48,0.00,,,0.02,weatherlink.com 1.10,2013-04-25 17:49:00,
2013-04-25 13:05:00,56.0,35.0,30.26,WSW,249,4.0,14.0,46,0.00,,,0.02,weatherlink.com 1.10,2013-04-25 18:05:00,
2013-04-25 13:20:00,56.4,35.0,30.25,WSW,246,7.0,14.0,45,0.00,,,0.02,weatherlink.com 1.10,2013-04-25 18:20:00,
2013-04-25 13:35:00,57.7,36.0,30.25,WSW,255,4.0,12.0,45,0.00,,,0.02,weatherlink.com 1.10,2013-04-25 18:35:00,
2013-04-25 13:50:00,58.2,34.0,30.24,West,259,4.0,10.0,41,0.00,,,0.02,weatherlink.com 1.10,2013-04-25 18:50:00,
2013-04-25 14:05:00,59.3,38.0,30.23,WSW,255,4.0,8.0,45,0.00,,,0.02,weatherlink.com 1.10,2013-04-25 19:05:00,
2013-04-25 14:20:00,59.2,36.0,30.23,West,275,4.0,13.0,42,0.00,,,0.02,weatherlink.com 1.10,2013-04-25 19:20:00,
2013-04-25 14:35:00,59.6,36.0,30.23,SSW,201,4.0,12.0,41,0.00,,,0.02,weatherlink.com 1.10,2013-04-25 19:35:00,
2013-04-25 14:50:00,60.0,36.0,30.22,SSW,193,4.0,18.0,41,0.00,,,0.02,weatherlink.com 1.10,2013-04-25 19:50:00,
2013-04-25 15:05:00,60.5,37.0,30.22,SW,234,6.0,9.0,42,0.00,,,0.02,weatherlink.com 1.10,2013-04-25 20:05:00,
2013-04-25 15:20:00,60.8,35.0,30.21,WSW,238,5.0,16.0,38,0.00,,,0.02,weatherlink.com 1.10,2013-04-25 20:20:00,
2013-04-25 15:35:00,61.0,36.0,30.20,WSW,246,4.0,13.0,40,0.00,,,0.02,weatherlink.com 1.10,2013-04-25 20:35:00,
2013-04-25 15:50:00,60.5,36.0,30.19,SSW,212,0.0,7.0,40,0.00,,,0.02,weatherlink.com 1.10,2013-04-25 20:50:00,
2013-04-25 16:05:00,60.6,35.0,30.18,SSW,198,3.0,11.0,39,0.00,,,0.02,weatherlink.com 1.10,2013-04-25 21:05:00,
2013-04-25 16:20:00,61.6,36.0,30.18,SSW,209,0.0,13.0,39,0.00,,,0.02,weatherlink.com 1.10,2013-04-25 21:20:00,
2013-04-25 16:35:00,61.3,36.0,30.17,SW,220,0.0,13.0,39,0.00,,,0.02,weatherlink.com 1.10,2013-04-25 21:35:00,
2013-04-25 16:50:00,61.5,37.0,30.16,SSW,194,3.0,14.0,40,0.00,,,0.02,weatherlink.com 1.10,2013-04-25 21:50:00,
2013-04-25 17:05:00,61.2,36.0,30.15,SSE,148,8.0,11.0,39,0.00,,,0.02,weatherlink.com 1.10,2013-04-25 22:05:00,
2013-04-25 17:20:00,61.3,37.0,30.15,South,169,0.0,10.0,41,0.00,,,0.02,weatherlink.com 1.10,2013-04-25 22:20:00,
2013-04-25 17:35:00,61.5,35.0,30.15,SSE,161,10.0,18.0,38,0.00,,,0.02,weatherlink.com 1.10,2013-04-25 22:35:00,
2013-04-25 17:50:00,61.5,37.0,30.15,South,173,5.0,13.0,40,0.00,,,0.02,weatherlink.com 1.10,2013-04-25 22:50:00,
2013-04-25 18:05:00,61.8,36.0,30.15,South,176,3.0,12.0,39,0.00,,,0.02,weatherlink.com 1.10,2013-04-25 23:05:00,
2013-04-25 18:20:00,62.3,36.0,30.15,South,182,9.0,14.0,38,0.00,,,0.02,weatherlink.com 1.10,2013-04-25 23:20:00,
2013-04-25 18:35:00,61.5,36.0,30.14,South,174,0.0,12.0,39,0.00,,,0.02,weatherlink.com 1.10,2013-04-25 23:35:00,
2013-04-25 18:50:00,60.8,37.0,30.14,South,189,6.0,13.0,41,0.00,,,0.02,weatherlink.com 1.10,2013-04-25 23:50:00,
2013-04-25 19:05:00,60.3,37.0,30.14,SSE,158,6.0,12.0,42,0.00,,,0.02,weatherlink.com 1.10,2013-04-26 00:05:00,
2013-04-25 19:20:00,59.3,37.0,30.13,SE,146,5.0,11.0,43,0.00,,,0.02,weatherlink.com 1.10,2013-04-26 00:20:00,
2013-04-25 19:35:00,58.1,38.0,30.13,SE,146,0.0,9.0,47,0.00,,,0.02,weatherlink.com 1.10,2013-04-26 00:35:00,
2013-04-25 19:50:00,56.8,38.0,30.13,SE,136,0.0,10.0,49,0.00,,,0.02,weatherlink.com 1.10,2013-04-26 00:50:00,
2013-04-25 20:05:00,55.5,37.0,30.12,SE,133,0.0,10.0,51,0.00,,,0.02,weatherlink.com 1.10,2013-04-26 01:05:00,
2013-04-25 20:20:00,54.4,37.0,30.12,SE,132,0.0,6.0,53,0.00,,,0.02,weatherlink.com 1.10,2013-04-26 01:20:00,
2013-04-25 20:35:00,53.3,37.0,30.12,SE,132,0.0,5.0,55,0.00,,,0.02,weatherlink.com 1.10,2013-04-26 01:35:00,
2013-04-25 20:50:00,52.7,37.0,30.12,SE,133,1.0,9.0,55,0.00,,,0.02,weatherlink.com 1.10,2013-04-26 01:50:00,
2013-04-25 21:05:00,52.4,37.0,30.12,SE,132,4.0,9.0,56,0.00,,,0.02,weatherlink.com 1.10,2013-04-26 02:05:00,
2013-04-25 21:20:00,52.1,37.0,30.12,SE,130,2.0,10.0,57,0.00,,,0.02,weatherlink.com 1.10,2013-04-26 02:20:00,
2013-04-25 21:35:00,52.1,37.0,30.13,SE,132,4.0,11.0,57,0.00,,,0.02,weatherlink.com 1.10,2013-04-26 02:35:00,
2013-04-25 21:50:00,52.0,37.0,30.14,SE,140,4.0,13.0,57,0.00,,,0.02,weatherlink.com 1.10,2013-04-26 02:50:00,
2013-04-25 22:05:00,51.7,37.0,30.14,SE,139,5.0,10.0,58,0.00,,,0.02,weatherlink.com 1.10,2013-04-26 03:05:00,
2013-04-25 22:20:00,51.0,37.0,30.14,SE,140,2.0,10.0,60,0.00,,,0.02,weatherlink.com 1.10,2013-04-26 03:20:00,
2013-04-25 22:35:00,50.7,38.0,30.14,SE,137,4.0,11.0,61,0.00,,,0.02,weatherlink.com 1.10,2013-04-26 03:35:00,
2013-04-25 22:50:00,50.6,38.0,30.14,SE,143,4.0,9.0,62,0.00,,,0.02,weatherlink.com 1.10,2013-04-26 03:50:00,
2013-04-25 23:05:00,50.7,38.0,30.14,SE,141,3.0,10.0,62,0.00,,,0.02,weatherlink.com 1.10,2013-04-26 04:05:00,
2013-04-25 23:20:00,50.7,38.0,30.14,SE,138,3.0,13.0,62,0.00,,,0.02,weatherlink.com 1.10,2013-04-26 04:20:00,
2013-04-25 23:35:00,50.2,38.0,30.14,SE,142,7.0,12.0,64,0.00,,,0.02,weatherlink.com 1.10,2013-04-26 04:35:00,
2013-04-25 23:50:00,49.9,38.0,30.14,SE,141,7.0,12.0,65,0.00,,,0.02,weatherlink.com 1.10,2013-04-26 04:50:00,